STARLINK-32386 (61213 NORAD) Tracking and Keplerian Element Data

This shows tracking and keplerian element data for the satellite.

Feedback or suggestion? Click here.




ElementValue
Catalog61213
NameSTARLINK-32386
Epoch Orbit477
Epoch Day286.91668981
Epoch Year2024
RAAN186.5969
Inclination53.1595
Eccentricity0.000102
Argument of Perigee111.7253
Mean Anonmoly18.4783
Mean Motion15.49349481
Decay Rate6.143E-05
L11 61213U 24171P 24286.91668981 .00006143 00000+0 11825-3 0 9991
L22 61213 53.1595 186.5969 0001020 111.7253 18.4783 15.49349481 4777



Live tracking and technical data element details for STARLINK-32386 (NORAD 61213). STARLINK-32386 can be tracked NOW for your location showing map with azimuth and elevation plus other details from your city location.







IsCatalogInMostPopularTable: catalog: 61213, numindb: 26
Update: records affected: 1



GetName: 61213 STARLINK-32386

Hit Count: updated at: Wed, 04 Dec 2024 13:33:09 GMT